CW0451 Weather Reports


Display with metric or nautical units.
time (UTC)temp
F
wind
direction
speed
MPH
gust
MPH
rain 1hr
in
rain 24hr
in
rain mn
in
humidity
%
barometer
mb
20260510152102 61 183 6.0 13.0 0.00 0.46 0.00 89 1012.9
20260510151103 59 200 8.0 12.0 0.00 0.46 0.00 90 1013.0
20260510145124 58 209 3.0 10.0 0.00 0.46 0.00 92 1012.9
20260510144145 58 203 5.0 10.0 0.00 0.46 0.00 92 1012.9
20260510143102 58 226 5.0 9.0 0.00 0.46 0.00 91 1013.0
20260510142102 58 194 5.0 9.0 0.00 0.46 0.00 92 1012.9
20260510141124 58 195 6.0 9.0 0.00 0.46 0.00 93 1012.9
20260510140123 58 245 1.0 9.0 0.00 0.46 0.00 94 1012.8
20260510134103 57 251 4.0 8.0 0.00 0.46 0.00 95 1012.9
20260510133102 56 213 3.0 6.0 0.00 0.46 0.00 95 1012.8
20260510132103 56 241 4.0 7.0 0.00 0.46 0.00 95 1012.7
20260510131102 56 312 2.0 9.0 0.00 0.46 0.00 95 1012.6
20260510130124 56 202 7.0 11.0 0.00 0.46 0.00 95 1012.1
20260510125103 56 205 6.0 11.0 0.00 0.46 0.00 95 1011.9
20260510124102 56 202 6.0 12.0 0.00 0.46 0.00 96 1011.8
20260510123103 55 184 6.0 14.0 0.00 0.46 0.00 96 1011.7
20260510122103 55 192 8.0 11.0 0.00 0.46 0.00 95 1011.8
20260510120104 54 198 4.0 8.0 0.00 0.46 0.00 95 1012.3
20260510115102 54 213 4.0 8.0 0.00 0.46 0.00 96 1012.3
20260510114103 54 260 2.0 7.0 0.00 0.46 0.00 96 1012.4
20260510113103 54 222 2.0 4.0 0.00 0.46 0.00 95 1012.4
20260510111102 53 170 1.0 4.0 0.00 0.47 0.00 95 1012.3
20260510105124 53 252 2.0 3.0 0.00 0.49 0.00 95 1012.4
20260510104102 53 266 1.0 2.0 0.00 0.50 0.00 95 1012.4
20260510103103 53 175 1.0 3.0 0.00 0.50 0.00 95 1012.2
20260510102102 53 196 1.0 2.0 0.00 0.51 0.00 95 1012.2
20260510101103 52 212 1.0 2.0 0.00 0.51 0.00 95 1012.3
20260510100123 52 199 1.0 4.0 0.00 0.51 0.00 95 1012.2
20260510095124 52 184 2.0 3.0 0.00 0.51 0.00 95 1012.0
20260510094103 52 195 2.0 4.0 0.00 0.51 0.00 95 1012.0
20260510093102 52 177 2.0 4.0 0.00 0.51 0.00 95 1011.8
20260510092103 52 192 2.0 4.0 0.00 0.51 0.00 95 1011.5
20260510091102 52 166 4.0 5.0 0.00 0.51 0.00 95 1011.3
20260510085103 52 206 2.0 4.0 0.00 0.51 0.00 95 1011.4
20260510084125 52 221 1.0 4.0 0.00 0.51 0.00 95 1011.5
20260510083103 52 235 3.0 6.0 0.00 0.51 0.00 95 1011.4
20260510082103 52 196 3.0 6.0 0.00 0.51 0.00 95 1011.6
20260510081102 52 195 4.0 7.0 0.00 0.51 0.00 95 1011.6
20260510080103 52 197 4.0 7.0 0.00 0.51 0.00 95 1011.6
20260510075102 52 205 4.0 5.0 0.00 0.51 0.00 95 1011.5
20260510074103 52 221 1.0 8.0 0.00 0.51 0.00 95 1011.4
20260510073102 52 232 3.0 6.0 0.00 0.51 0.00 95 1011.4
20260510072103 52 210 4.0 6.0 0.00 0.51 0.00 95 1011.1
20260510071103 52 194 3.0 7.0 0.00 0.51 0.00 95 1011.0
20260510065103 53 247 4.0 9.0 0.00 0.51 0.00 94 1011.0
20260510064103 53 262 1.0 8.0 0.00 0.51 0.00 94 1010.9
20260510063102 53 224 5.0 11.0 0.00 0.51 0.00 94 1010.9
20260510062103 53 220 6.0 10.0 0.00 0.51 0.00 94 1010.9
20260510061102 53 244 3.0 7.0 0.00 0.51 0.00 94 1011.0
20260510055104 53 214 5.0 12.0 0.00 0.51 0.00 94 1010.8
20260510054102 53 212 6.0 10.0 0.00 0.51 0.00 94 1011.0
20260510053103 53 212 4.0 8.0 0.00 0.51 0.00 94 1010.9
20260510052102 53 195 5.0 10.0 0.00 0.51 0.00 94 1010.9
20260510051103 53 205 5.0 8.0 0.00 0.51 0.00 94 1011.0
20260510045103 52 204 4.0 7.0 0.00 0.51 0.00 94 1010.9
20260510044123 52 205 3.0 6.0 0.00 0.51 0.00 94 1011.0
20260510043124 52 192 5.0 7.0 0.00 0.51 0.00 94 1010.8
20260510042103 52 192 4.0 9.0 0.00 0.51 0.00 94 1010.9
20260510041102 51 182 5.0 8.0 0.00 0.51 0.00 94 1011.0
20260510035124 51 183 2.0 4.0 0.00 0.51 0.51 94 1011.4
20260510034103 51 179 2.0 5.0 0.00 0.51 0.51 94 1011.4
20260510033124 51 166 1.0 3.0 0.00 0.51 0.51 94 1011.2
20260510032102 51 193 2.0 3.0 0.00 0.51 0.51 94 1011.5
20260510031124 51 193 0.0 2.0 0.00 0.51 0.51 94 1011.5
20260510030145 51 195 1.0 3.0 0.00 0.51 0.51 94 1011.6
20260510025103 51 112 2.0 3.0 0.03 0.51 0.51 93 1011.6
20260510024103 51 330 2.0 3.0 0.03 0.51 0.51 93 1011.8
20260510023102 51 90 3.0 4.0 0.03 0.51 0.51 93 1011.8
20260510022103 51 112 2.0 4.0 0.02 0.50 0.50 93 1012.0
20260510021102 52 161 1.0 4.0 0.01 0.49 0.49 93 1012.3
20260510015103 52 74 0.0 2.0 0.00 0.47 0.47 93 1012.4
20260510014124 52 74 0.0 2.0 0.00 0.47 0.47 92 1012.4
20260510013104 52 74 1.0 2.0 0.00 0.47 0.47 92 1012.5
20260510012103 52 116 1.0 2.0 0.00 0.47 0.47 92 1012.5
20260510011124 52 138 2.0 4.0 0.00 0.47 0.47 92 1012.4
20260510005103 52 206 3.0 7.0 0.00 0.47 0.47 92 1012.6
20260510004103 52 187 5.0 10.0 0.00 0.47 0.47 92 1012.7
20260510003103 53 189 3.0 8.0 0.00 0.47 0.47 92 1012.7
20260510002124 53 191 6.0 10.0 0.00 0.47 0.47 92 1012.7
20260510001103 53 192 5.0 11.0 0.00 0.47 0.47 92 1012.7
20260509235103 53 194 4.0 11.0 0.02 0.47 0.47 92 1012.7
20260509234103 54 200 4.0 10.0 0.02 0.47 0.47 92 1012.7
20260509233102 54 215 4.0 9.0 0.02 0.47 0.47 93 1012.6
20260509232103 54 229 2.0 8.0 0.01 0.46 0.46 93 1012.7
20260509231123 54 211 4.0 10.0 0.00 0.45 0.45 93 1012.7
20260509225103 54 191 4.0 10.0 0.10 0.45 0.45 92 1012.6
20260509224103 54 218 5.0 9.0 0.09 0.44 0.44 92 1012.6
20260509223125 54 226 5.0 12.0 0.09 0.44 0.44 92 1012.5
20260509222102 54 220 4.0 11.0 0.08 0.43 0.43 92 1012.5
20260509221103 54 221 8.0 11.0 0.07 0.42 0.42 92 1012.3
20260509220124 54 206 8.0 12.0 0.00 0.35 0.35 92 1012.3
20260509215124 54 195 6.0 10.0 0.17 0.31 0.31 91 1012.1
20260509214102 55 202 5.0 9.0 0.12 0.26 0.26 91 1012.1
20260509213103 55 196 5.0 10.0 0.07 0.21 0.21 91 1012.1
20260509212103 55 213 4.0 10.0 0.01 0.15 0.15 91 1012.3
20260509211103 55 215 6.0 12.0 0.01 0.15 0.15 90 1012.1
20260509205103 55 202 8.0 14.0 0.09 0.14 0.14 90 1011.6
20260509204102 55 199 7.0 15.0 0.09 0.14 0.14 89 1011.7
20260509203103 56 200 8.0 14.0 0.07 0.12 0.12 88 1011.6
20260509202102 56 213 10.0 18.0 0.03 0.08 0.08 87 1011.9
20260509201103 57 208 15.0 29.0 0.03 0.08 0.08 84 1011.9
20260509200103 58 207 11.0 22.0 0.00 0.05 0.05 81 1011.9
20260509195103 59 204 11.0 21.0 0.00 0.05 0.05 80 1011.6
20260509194102 59 206 13.0 20.0 0.00 0.05 0.05 79 1011.7
20260509193124 59 217 11.0 19.0 0.00 0.05 0.05 77 1011.7
20260509192103 60 201 10.0 20.0 0.00 0.05 0.05 76 1011.7
20260509191102 60 196 10.0 26.0 0.00 0.05 0.05 75 1011.8
20260509185102 60 195 11.0 21.0 0.00 0.05 0.05 76 1011.8
20260509184103 60 193 11.0 21.0 0.00 0.05 0.05 76 1012.1
20260509183102 60 187 12.0 18.0 0.00 0.05 0.05 78 1012.0
20260509182103 60 182 10.0 17.0 0.00 0.05 0.05 78 1012.0
20260509181103 59 189 12.0 18.0 0.00 0.05 0.05 78 1012.1
20260509175103 57 202 5.0 14.0 0.00 0.05 0.05 82 1012.2
20260509174102 57 194 8.0 12.0 0.00 0.05 0.05 82 1012.4
20260509173124 56 207 7.0 14.0 0.00 0.05 0.05 82 1012.5
20260509172103 56 212 9.0 16.0 0.00 0.05 0.05 81 1013.0
20260509171102 56 198 7.0 15.0 0.00 0.05 0.05 81 1013.0
20260509165102 58 200 10.0 17.0 0.00 0.05 0.05 76 1012.9
20260509164103 58 212 11.0 19.0 0.00 0.05 0.05 75 1012.8
20260509163102 59 223 7.0 13.0 0.00 0.05 0.05 75 1012.8
20260509162103 59 202 11.0 15.0 0.00 0.05 0.05 75 1012.8
20260509161103 59 183 8.0 18.0 0.00 0.05 0.05 75 1012.8
20260509160124 59 190 9.0 24.0 0.00 0.05 0.05 74 1012.8
20260509155102 59 183 9.0 17.0 0.00 0.05 0.05 75 1012.9
20260509154124 59 196 10.0 20.0 0.00 0.05 0.05 74 1013.2
20260509153102 59 179 12.0 20.0 0.00 0.05 0.05 76 1013.1